CW6318 Weather Reports


Display with metric or nautical units.
time (UTC)temp
F
wind
direction
speed
MPH
gust
MPH
rain 1hr
in
rain 24hr
in
rain mn
in
humidity
%
barometer
mb
20260906204500 55 221 0.0 0.0 0.00 0.02 0.01 62 1000.9
20260906203959 54 221 0.0 0.0 0.00 0.02 0.01 57 1000.8
20260906203459 54 223 0.0 0.0 0.00 0.02 0.01 56 1000.9
20260906202959 54 223 0.0 0.0 0.00 0.02 0.01 56 1000.8
20260906202459 54 223 0.0 0.0 0.00 0.02 0.01 55 1000.9
20260906202002 54 223 0.0 0.0 0.00 0.02 0.01 55 1000.9
20260906201459 53 194 0.0 0.0 0.00 0.02 0.01 55 1000.9
20260906201002 53 194 0.0 0.0 0.00 0.02 0.01 54 1000.9
20260906200459 53 195 0.0 0.0 0.00 0.02 0.01 54 1000.9
20260906195958 53 195 0.0 0.0 0.00 0.02 0.01 52 1000.8
20260906195459 53 194 0.0 0.0 0.00 0.02 0.01 53 1000.8
20260906194959 53 194 0.0 0.0 0.00 0.02 0.01 52 1000.8
20260906194459 52 195 0.0 0.0 0.00 0.02 0.01 53 1000.8
20260906193958 52 194 0.0 0.0 0.00 0.02 0.01 53 1000.8
20260906193500 52 194 0.0 0.0 0.00 0.02 0.01 54 1000.8
20260906192959 52 194 0.0 0.0 0.00 0.02 0.01 54 1000.9
20260906192501 53 194 0.0 0.0 0.00 0.02 0.01 52 1000.9
20260906191959 53 194 0.0 0.0 0.00 0.02 0.01 51 1000.9
20260906190458 52 194 0.0 0.0 0.00 0.02 0.01 52 1000.9
20260906184958 52 194 0.0 0.0 0.01 0.02 0.01 52 1000.8
20260906184458 52 194 0.0 0.0 0.01 0.02 0.01 52 1000.8
20260906183958 52 194 0.0 0.0 0.01 0.02 0.01 51 1000.9
20260906183458 52 194 0.0 0.0 0.01 0.02 0.01 51 1000.8
20260906182001 51 194 0.0 0.0 0.01 0.02 0.01 52 1000.8
20260906181458 52 194 0.0 0.0 0.01 0.02 0.01 51 1000.8
20260906175958 51 194 0.0 0.0 0.01 0.02 0.01 52 1000.7
20260906175459 51 166 0.0 0.0 0.00 0.01 0.00 52 1000.7
20260906174458 51 167 0.0 0.0 0.00 0.01 0.00 53 1000.7
20260906173959 51 167 0.0 0.0 0.00 0.01 0.00 53 1000.7
20260906173500 51 167 0.0 0.0 0.00 0.01 0.00 53 1000.7
20260906172956 50 166 0.0 0.0 0.00 0.01 0.00 53 1000.7
20260906171458 50 167 0.0 0.0 0.00 0.01 0.00 53 1000.6
20260906171003 50 158 0.0 0.0 0.00 0.01 0.00 53 1000.6
20260906170500 50 157 0.0 0.0 0.00 0.01 0.00 53 1000.6
20260906170001 50 157 0.0 0.0 0.00 0.01 0.00 53 1000.4
20260906165459 50 158 0.0 0.0 0.00 0.01 0.00 53 1000.4
20260906165000 50 157 0.0 0.0 0.00 0.01 0.00 53 1000.4
20260906164500 49 157 0.0 0.0 0.00 0.01 0.00 54 1000.4
20260906163959 49 157 0.0 0.0 0.00 0.01 0.00 54 1000.4
20260906163500 49 158 0.0 0.0 0.00 0.01 0.00 55 1000.4
20260906163000 49 157 0.0 0.0 0.00 0.01 0.00 55 1000.4
20260906162459 49 157 0.0 0.0 0.00 0.01 0.00 55 1000.4
20260906161959 49 158 0.0 0.0 0.00 0.01 0.00 55 1000.4
20260906161459 49 157 0.0 0.0 0.00 0.01 0.00 55 1000.4
20260906160959 49 157 0.0 0.0 0.00 0.01 0.00 55 1000.4
20260906160459 49 158 0.0 0.0 0.00 0.01 0.00 55 1000.4
20260906155958 49 157 0.0 0.0 0.00 0.01 0.00 55 1000.4
20260906155459 49 158 0.0 0.0 0.00 0.01 0.00 55 1000.4
20260906154959 49 157 0.0 0.0 0.00 0.01 0.00 55 1000.4
20260906154458 49 157 0.0 0.0 0.00 0.01 0.00 56 1000.4
20260906153959 49 157 0.0 0.0 0.00 0.01 0.00 56 1000.3
20260906153458 49 158 0.0 0.0 0.00 0.01 0.00 56 1000.3
20260906152957 49 158 0.0 0.0 0.00 0.01 0.00 56 1000.2
20260906152458 49 157 0.0 0.0 0.00 0.01 0.00 56 1000.1
20260906151958 49 157 0.0 0.0 0.00 0.01 0.00 56 1000.1
20260906151457 49 157 0.0 0.0 0.00 0.01 0.00 56 1000.1
20260906150958 49 157 0.0 0.0 0.00 0.01 0.00 56 1000.1
20260906150459 49 158 0.0 0.0 0.00 0.01 0.00 56 1000.0
20260906145957 49 158 0.0 0.0 0.00 0.01 0.00 56 999.9
20260906144957 49 158 0.0 0.0 0.00 0.01 0.00 57 999.9
20260906144457 49 157 0.0 0.0 0.00 0.01 0.00 57 999.9
20260906143957 49 158 0.0 0.0 0.00 0.01 0.00 57 999.8
20260906142957 49 158 0.0 0.0 0.00 0.01 0.00 57 999.7
20260906142457 49 157 0.0 0.0 0.00 0.01 0.00 57 999.8
20260906141457 49 157 0.0 0.0 0.00 0.01 0.00 57 999.8
20260906141000 49 157 0.0 0.0 0.00 0.01 0.00 57 999.8
20260906135958 49 157 0.0 0.0 0.00 0.01 0.00 57 999.6
20260906135458 49 157 0.0 0.0 0.00 0.01 0.00 57 999.6
20260906134958 49 157 0.0 0.0 0.00 0.01 0.00 57 999.5
20260906134458 49 157 0.0 0.0 0.00 0.01 0.00 57 999.5
20260906133459 49 158 0.0 0.0 0.00 0.01 0.00 57 999.4
20260906132957 49 157 0.0 0.0 0.00 0.01 0.00 58 999.5
20260906132459 49 157 0.0 0.0 0.00 0.01 0.00 58 999.4
20260906131957 49 158 0.0 0.0 0.00 0.01 0.00 58 999.3
20260906131458 49 157 0.0 0.0 0.00 0.01 0.00 58 999.3
20260906125958 49 157 0.0 0.0 0.00 0.01 0.00 58 999.3
20260906125458 49 158 0.0 0.0 0.00 0.01 0.00 58 999.3
20260906124958 49 158 0.0 0.0 0.00 0.01 0.00 58 999.3
20260906123958 49 158 0.0 0.0 0.00 0.01 0.00 58 999.5
20260906123458 49 158 0.0 0.0 0.00 0.01 0.00 58 999.5
20260906122958 49 158 0.0 0.0 0.00 0.01 0.00 58 999.6
20260906122458 49 158 0.0 0.0 0.00 0.01 0.00 58 999.5
20260906121958 49 157 0.0 0.0 0.00 0.01 0.00 58 999.5
20260906121500 49 157 0.0 1.0 0.00 0.01 0.00 58 999.6
20260906120459 49 158 0.0 0.0 0.00 0.01 0.00 58 999.6
20260906115958 49 157 0.0 0.0 0.00 0.01 0.00 58 999.6
20260906115500 49 157 0.0 0.0 0.00 0.01 0.00 58 999.5
20260906115003 49 158 0.0 0.0 0.00 0.01 0.00 59 999.7
20260906114500 50 157 0.0 0.0 0.00 0.01 0.00 59 999.6
20260906113959 50 157 0.0 0.0 0.00 0.01 0.00 59 999.7
20260906113459 50 157 0.0 0.0 0.00 0.01 0.00 59 999.7
20260906112959 50 158 0.0 0.0 0.00 0.01 0.00 59 999.8
20260906112000 50 157 0.0 0.0 0.00 0.01 0.00 59 999.8
20260906111459 50 157 0.0 0.0 0.00 0.01 0.00 59 999.8
20260906110959 50 157 0.0 0.0 0.00 0.01 0.00 59 999.9
20260906110458 50 157 0.0 0.0 0.00 0.01 0.00 60 999.9
20260906105958 50 157 0.0 0.0 0.00 0.01 0.00 59 999.9
20260906105458 50 158 0.0 0.0 0.00 0.01 0.00 60 999.9
20260906105001 50 157 0.0 0.0 0.00 0.01 0.00 60 1000.0
20260906104457 50 158 0.0 0.0 0.00 0.01 0.00 60 1000.1
20260906104001 50 157 0.0 0.0 0.00 0.01 0.00 60 1000.1
20260906103458 50 157 0.0 0.0 0.00 0.01 0.00 60 1000.2
20260906102458 51 157 0.0 0.0 0.00 0.01 0.00 61 1000.3
20260906101959 51 157 0.0 0.0 0.00 0.01 0.00 61 1000.3
20260906101459 51 158 0.0 0.0 0.00 0.01 0.00 61 1000.4
20260906100959 51 157 0.0 0.0 0.00 0.01 0.00 61 1000.5
20260906095507 51 158 0.0 0.0 0.00 0.01 0.00 62 1000.5
20260906095005 51 158 0.0 0.0 0.00 0.01 0.00 62 1000.5
20260906094501 51 157 0.0 0.0 0.00 0.01 0.00 63 1000.6
20260906094007 52 157 0.0 0.0 0.00 0.01 0.00 63 1000.6
20260906092537 52 158 0.0 1.0 0.00 0.01 0.00 64 1000.8
20260906091500 52 157 0.0 0.0 0.00 0.01 0.00 64 1000.8
20260906090958 52 158 0.0 0.0 0.00 0.01 0.00 65 1000.8
20260906090501 53 158 0.0 0.0 0.00 0.01 0.00 65 1000.8
20260906090002 53 158 0.0 0.0 0.00 0.01 0.00 65 1000.8
20260906085459 53 157 0.0 0.0 0.00 0.01 0.00 65 1000.8
20260906084502 53 158 0.0 0.0 0.00 0.01 0.00 65 1000.7
20260906082505 53 157 0.0 0.0 0.00 0.01 0.00 64 1000.6
20260906082005 53 157 0.0 0.0 0.00 0.01 0.00 64 1000.4
20260906081004 53 157 0.0 0.0 0.00 0.01 0.00 63 1000.2
20260906080000 52 157 0.0 1.0 0.00 0.01 0.00 63 1000.0
20260906075502 52 158 0.0 1.0 0.00 0.01 0.00 63 1000.1
20260906074959 52 157 0.0 2.0 0.00 0.01 0.00 63 999.9
20260906074501 52 198 0.0 4.0 0.00 0.01 0.00 63 999.9
20260906074001 52 192 0.0 4.0 0.00 0.01 0.00 63 999.8
20260906073502 52 211 0.0 3.0 0.00 0.01 0.00 63 999.8
20260906073001 52 211 0.0 0.0 0.00 0.01 0.00 63 999.7
20260906072500 52 211 0.0 0.0 0.00 0.01 0.00 64 999.8
20260906071959 52 211 0.0 0.0 0.00 0.01 0.00 64 1000.0
20260906070959 53 211 0.0 0.0 0.00 0.01 0.00 65 1000.1
20260906070459 53 211 0.0 0.0 0.00 0.01 0.00 65 1000.0
20260906070005 53 211 0.0 0.0 0.00 0.01 0.00 65 999.9
20260906065500 53 211 0.0 0.0 0.00 0.02 0.01 65 999.8
20260906065001 53 211 0.0 0.0 0.00 0.02 0.01 66 999.8
20260906064459 53 211 0.0 0.0 0.00 0.02 0.01 66 999.8
20260906064002 53 211 0.0 0.0 0.00 0.02 0.01 66 999.9
20260906062959 53 211 0.0 0.0 0.00 0.02 0.01 66 999.9
20260906062500 53 211 0.0 0.0 0.00 0.02 0.01 67 999.8
20260906062001 53 211 0.0 0.0 0.00 0.02 0.01 67 999.8
20260906060501 53 211 0.0 2.0 0.00 0.02 0.01 68 999.8
20260906060000 53 211 0.0 2.0 0.00 0.02 0.01 68 999.8
20260906055505 54 285 0.0 0.0 0.00 0.02 0.01 69 1000.0
20260906054504 54 285 0.0 0.0 0.00 0.02 0.01 70 1000.1
20260906053501 54 285 0.0 0.0 0.00 0.02 0.01 72 1000.1
20260906053001 54 285 0.0 0.0 0.00 0.02 0.01 72 1000.0
20260906052501 54 285 0.0 0.0 0.00 0.02 0.01 72 1000.3
20260906051003 54 285 0.0 0.0 0.00 0.02 0.01 73 1000.3
20260906050500 54 285 0.0 0.0 0.00 0.02 0.01 74 1000.5
20260906045501 54 285 0.0 0.0 0.00 0.02 0.01 74 1000.5
20260906045002 55 285 0.0 0.0 0.00 0.02 0.01 74 1000.6
20260906044503 55 285 0.0 0.0 0.00 0.02 0.01 75 1000.6
20260906044001 55 285 0.0 0.0 0.00 0.02 0.01 75 1000.7
20260906043508 55 285 0.0 0.0 0.00 0.02 0.01 75 1000.6
20260906043034 55 285 0.0 0.0 0.00 0.02 0.01 75 1000.7
20260906042500 55 285 0.0 0.0 0.00 0.02 0.01 75 1000.7
20260906042001 55 285 0.0 0.0 0.00 0.02 0.01 76 1000.7
20260906041005 56 285 0.0 0.0 0.00 0.02 0.01 76 1000.7
20260906040502 56 285 0.0 0.0 0.00 0.02 0.01 76 1000.7
20260906040000 56 285 0.0 0.0 0.00 0.02 0.01 76 1000.7
20260906035459 56 285 0.0 0.0 0.00 0.02 0.01 76 1000.6
20260906035000 57 285 0.0 0.0 0.00 0.02 0.01 76 1000.6
20260906034503 57 285 0.0 0.0 0.00 0.02 0.01 76 1000.5
20260906034003 57 285 0.0 0.0 0.00 0.02 0.01 76 1000.4
20260906033000 57 285 0.0 0.0 0.00 0.02 0.01 76 1000.2
20260906032500 58 285 0.0 0.0 0.00 0.02 0.01 76 1000.1
20260906032000 58 285 0.0 0.0 0.00 0.02 0.01 76 1000.1
20260906031500 58 285 0.0 0.0 0.00 0.02 0.01 76 1000.0
20260906031003 59 285 0.0 0.0 0.00 0.02 0.01 76 999.9
20260906030459 59 285 0.0 0.0 0.00 0.02 0.01 76 999.9
20260906030000 59 285 0.0 0.0 0.00 0.02 0.01 76 999.9
20260906025459 59 285 0.0 0.0 0.00 0.02 0.01 76 999.9
20260906025000 60 285 0.0 0.0 0.00 0.02 0.01 76 999.9
20260906024029 60 285 0.0 0.0 0.00 0.02 0.01 76 999.8
20260906023459 61 285 0.0 0.0 0.00 0.02 0.01 76 999.8
20260906022959 61 285 0.0 0.0 0.00 0.02 0.01 76 999.7
20260906021504 62 285 0.0 0.0 0.00 0.02 0.01 76 999.7
20260906020002 62 285 0.0 0.0 0.00 0.02 0.01 76 999.9
20260906015006 62 285 0.0 0.0 0.00 0.02 0.01 75 999.7
20260906014001 62 285 0.0 0.0 0.00 0.02 0.01 75 999.7
20260906013459 62 285 0.0 0.0 0.00 0.02 0.01 75 999.7
20260906013001 62 285 0.0 0.0 0.00 0.02 0.01 75 999.7
20260906010500 61 285 0.0 0.0 0.00 0.02 0.01 75 999.7
20260906010003 61 285 0.0 0.0 0.00 0.02 0.01 76 999.7
20260906005500 62 285 0.0 0.0 0.00 0.02 0.01 75 999.7
20260906005002 62 285 0.0 0.0 0.00 0.02 0.01 74 999.8
20260906004500 63 285 0.0 0.0 0.00 0.02 0.01 75 999.8
20260906004000 63 285 0.0 0.0 0.00 0.02 0.01 73 999.8
20260906003500 63 285 0.0 0.0 0.00 0.02 0.01 71 999.8
20260906003001 63 285 0.0 0.0 0.00 0.02 0.01 71 999.8
20260906001958 63 285 0.0 0.0 0.00 0.02 0.01 73 999.9
20260906001459 66 285 0.0 0.0 0.00 0.02 0.01 71 1000.0
20260906000500 66 285 0.0 0.0 0.00 0.02 0.01 69 1000.2
20260906000003 65 285 0.0 0.0 0.00 0.02 0.01 72 999.9
20260905234500 64 285 0.0 2.0 0.00 0.02 0.01 74 999.9
20260905234005 64 285 0.0 2.0 0.00 0.02 0.01 74 999.9
20260905233501 62 240 0.0 0.0 0.00 0.02 0.01 76 1000.0
20260905233000 62 240 0.0 0.0 0.00 0.02 0.01 75 1000.1
20260905232505 62 241 0.0 0.0 0.00 0.02 0.01 75 1000.3
20260905232002 62 241 0.0 0.0 0.00 0.02 0.01 76 1000.4
20260905231001 60 241 0.0 1.0 0.01 0.02 0.01 74 1000.5
20260905230002 59 241 0.0 0.0 0.01 0.02 0.01 70 1000.6
20260905225503 59 241 0.0 0.0 0.01 0.02 0.01 67 1000.6
20260905224458 60 241 0.0 0.0 0.01 0.02 0.01 70 1000.6
20260905224000 60 241 0.0 0.0 0.01 0.02 0.01 71 1000.5
20260905223001 61 241 0.0 0.0 0.01 0.02 0.01 75 1000.5
20260905222503 61 241 0.0 0.0 0.01 0.02 0.01 75 1000.6
20260905222005 61 241 0.0 0.0 0.01 0.02 0.01 76 1000.7
20260905221504 61 241 0.0 0.0 0.00 0.01 0.00 76 1000.7
20260905221001 63 241 0.0 0.0 0.00 0.01 0.00 75 1000.7
20260905220501 63 241 0.0 0.0 0.00 0.01 0.00 74 1000.7
20260905220000 64 241 0.0 0.0 0.00 0.01 0.00 73 1000.6
20260905214504 64 241 0.0 0.0 0.00 0.01 0.00 67 1000.5
20260905213503 64 241 0.0 2.0 0.00 0.01 0.00 68 1000.4
20260905212959 64 241 0.0 0.0 0.00 0.01 0.00 66 1000.4
20260905212501 65 241 0.0 1.0 0.00 0.01 0.00 66 1000.4
20260905212001 64 241 0.0 1.0 0.00 0.01 0.00 68 1000.3
20260905211500 64 241 0.0 1.0 0.00 0.01 0.00 69 1000.3
20260905210503 65 240 0.0 3.0 0.00 0.01 0.00 66 1000.3
20260905210001 66 251 0.0 3.0 0.00 0.01 0.00 68 1000.2